This demonstration page uses our WeatherBlox Daily Observations layout. Learn more.

Left ArrowRight Arrow

36.17497, -115.13722

Hourly Observations for May 12, 2017

Temp ( °F °C ) Dew Point ( °F °C ) Humidity (%) Winds ( mph kmh ) Pressure ( in mb ) Visibility ( mi km ) Precip ( " mm )
12:53 am 00:53 Clear 75 23.9 39 3.9 27 27 SSW 6 9 29.91 1013 10 16 0.00 0.00
1:53 am 01:53 Clear 72 22.2 40 4.4 31 31 SE 5 7 29.90 1013 10 16 0.00 0.00
2:53 am 02:53 Clear 72 22.2 41 5 33 33 Calm 29.89 1012 10 16 0.00 0.00
3:53 am 03:53 Clear 68 20 44 6.7 42 42 NE 6 9 29.89 1012 10 16 0.00 0.00
4:53 am 04:53 Clear 67 19.4 44 6.7 44 44 VRB 3 6 29.89 1012 10 16 0.00 0.00
5:53 am 05:53 Sunny 66 18.9 42 5.6 42 42 NW 6 9 29.89 1012 10 16 0.00 0.00
6:53 am 06:53 Sunny 70 21.1 39 3.9 32 32 E 5 7 29.89 1012 10 16 0.00 0.00
7:53 am 07:53 Sunny 75 23.9 34 1.1 22 22 SE 9 15 29.88 1012 10 16 0.00 0.00
8:53 am 08:53 Sunny 79 26.1 31 -0.6 17 17 SSE 8 13 29.86 1011 10 16 0.00 0.00
9:53 am 09:53 Sunny 83 28.3 32 0 16 16 S 18 30 29.84 1011 10 16 0.00 0.00
10:53 am 10:53 Sunny 85 29.4 32 0 15 15 S 16 26 29.82 1010 10 16 0.00 0.00
11:53 am 11:53 Sunny 89 31.7 27 -2.8 11 11 S 17 28 29.80 1009 10 16 0.00 0.00
12:34 pm 12:34 Sunny 90 32.2 24 -4.4 9 9 SW 16 26 29.62 1003 10 16 0.00 0.00
12:53 pm 12:53 Sunny 89 31.7 26 -3.3 10 10 SW 16 26 29.79 1009 10 16 0.00 0.00
1:53 pm 13:53 Sunny 91 32.8 23 -5 8 8 SW 18 30 29.74 1007 10 16 0.00 0.00
2:53 pm 14:53 Sunny 92 33.3 13 -10.6 5 5 SW 21 33 29.71 1006 10 16 0.00 0.00
3:53 pm 15:53 Sunny 91 32.8 8 -13.3 4 4 WSW 18 30 29.69 1005 10 16 0.00 0.00
4:53 pm 16:53 Sunny 91 32.8 17 -8.3 6 6 SW 20 31 29.67 1005 10 16 0.00 0.00
5:53 pm 17:53 Sunny 89 31.7 21 -6.1 8 8 SW 20 31 29.65 1004 10 16 0.00 0.00
6:53 pm 18:53 Sunny 86 30 26 -3.3 11 11 SW 23 37 29.64 1004 10 16 0.00 0.00
7:53 pm 19:53 Clear 84 28.9 27 -2.8 12 12 WSW 15 24 29.63 1003 10 16 0.00 0.00
8:53 pm 20:53 Clear 81 27.2 33 0.6 18 18 W 23 37 29.64 1004 10 16 0.00 0.00
9:53 pm 21:53 Clear 77 25 32 0 19 19 W 24 39 29.66 1004 10 16 0.00 0.00
10:53 pm 22:53 Clear 76 24.4 30 -1.1 18 18 W 21 33 29.66 1004 10 16 0.00 0.00
11:53 pm 23:53 Clear 73 22.8 31 -0.6 21 21 WSW 13 20 29.67 1005 10 16 0.00 0.00

Powered by AerisWeather